User: anonymous   Login
Location: Caltech
(34.1382°N, 118.1253°W)
Time: 02:03:00
(UTC-08:00)
Language:

Cosmos-2242 - Orbit

View from above orbital plane
View from above orbital plane
View from above satellite
View from above satellite

Ground track
Ground track

The orbit data is extracted from the following two-line orbital elements,

1 22626U 93024A   17350.81126002  .00000235  00000-0  22976-4 0  9992
2 22626  82.5227 229.6373 0017744 232.3704 127.5904 14.87748785333301
Epoch (UTC): 16 December 2017 19:28:12
Eccentricity: 0.0017744
inclination: 82.5227°
perigee height: 592 km
apogee height: 617 km
right ascension of ascending node: 229.6373°
argument of perigee: 232.3704°
revolutions per day: 14.87748785
mean anomaly at epoch: 127.5904°
orbit number at epoch: 33330

The dashed part of the orbit path shows where the satellite is in the earth's shadow,  

DLR